| time (UTC) | temp C | wind direction | speed KPH | gust KPH | rain 1hr cm | rain 24hr cm | rain mn cm | humidity % | barometer mb |
| 20260508002604 | 18 | 285 | 11.3 | 19.3 | 0.00 | 0.00 | 0.00 | 83 | 1014.0 |
| 20260508002102 | 18 | 287 | 3.2 | 20.9 | 0.00 | 0.00 | 0.00 | 84 | 1014.0 |
| 20260508001557 | 18 | 269 | 6.4 | 20.9 | 0.00 | 0.00 | 0.00 | 85 | 1014.0 |
| 20260508001053 | 18 | 307 | 6.4 | 24.1 | 0.00 | 0.00 | 0.00 | 84 | 1014.0 |
| 20260508000549 | 20 | 261 | 3.2 | 20.9 | 0.00 | 0.00 | 0.00 | 81 | 1013.9 |
| 20260508000047 | 19 | 281 | 3.2 | 19.3 | 0.00 | 0.00 | 0.00 | 81 | 1014.0 |
| 20260507235543 | 19 | 269 | 4.8 | 14.5 | 0.00 | 0.00 | 0.00 | 83 | 1014.1 |
| 20260507235041 | 19 | 279 | 16.1 | 16.1 | 0.00 | 0.00 | 0.00 | 81 | 1014.0 |
| 20260507234537 | 19 | 310 | 1.6 | 20.9 | 0.00 | 0.00 | 0.00 | 83 | 1014.0 |
| 20260507234033 | 19 | 285 | 8.0 | 22.5 | 0.00 | 0.00 | 0.00 | 81 | 1013.9 |
| 20260507233530 | 20 | 330 | 3.2 | 17.7 | 0.00 | 0.00 | 0.00 | 82 | 1014.0 |
| 20260507233029 | 20 | 291 | 4.8 | 20.9 | 0.00 | 0.00 | 0.00 | 81 | 1013.9 |
| 20260507232525 | 20 | 269 | 14.5 | 19.3 | 0.00 | 0.00 | 0.00 | 81 | 1014.0 |
| 20260507232022 | 19 | 346 | 3.2 | 22.5 | 0.00 | 0.00 | 0.00 | 82 | 1014.1 |
| 20260507231518 | 20 | 296 | 11.3 | 20.9 | 0.00 | 0.00 | 0.00 | 80 | 1013.9 |
| 20260507231016 | 19 | 297 | 6.4 | 24.1 | 0.00 | 0.00 | 0.00 | 83 | 1014.1 |
| 20260507230513 | 19 | 288 | 6.4 | 22.5 | 0.00 | 0.00 | 0.00 | 82 | 1014.0 |
| 20260507230009 | 20 | 291 | 14.5 | 25.7 | 0.00 | 0.00 | 0.00 | 80 | 1014.1 |
| 20260507225504 | 20 | 282 | 6.4 | 20.9 | 0.00 | 0.00 | 0.00 | 79 | 1014.1 |
| 20260507225000 | 20 | 282 | 8.0 | 27.4 | 0.00 | 0.00 | 0.00 | 81 | 1014.1 |
| 20260507224456 | 20 | 281 | 19.3 | 20.9 | 0.00 | 0.00 | 0.00 | 79 | 1014.2 |
| 20260507223953 | 20 | 317 | 4.8 | 25.7 | 0.00 | 0.00 | 0.00 | 82 | 1014.4 |
| 20260507223449 | 19 | 232 | 3.2 | 22.5 | 0.00 | 0.00 | 0.00 | 83 | 1014.4 |
| 20260507222947 | 19 | 275 | 19.3 | 22.5 | 0.00 | 0.00 | 0.00 | 83 | 1014.2 |
| 20260507222443 | 20 | 316 | 8.0 | 27.4 | 0.00 | 0.00 | 0.00 | 82 | 1014.3 |
| 20260507221940 | 19 | 284 | 24.1 | 27.4 | 0.00 | 0.00 | 0.00 | 81 | 1014.4 |
| 20260507221437 | 20 | 265 | 6.4 | 25.7 | 0.00 | 0.00 | 0.00 | 80 | 1014.3 |
| 20260507220933 | 20 | 267 | 3.2 | 16.1 | 0.00 | 0.00 | 0.00 | 79 | 1014.5 |
| 20260507220431 | 20 | 230 | 3.2 | 20.9 | 0.00 | 0.00 | 0.00 | 79 | 1014.5 |
| 20260507215927 | 20 | 247 | 4.8 | 17.7 | 0.00 | 0.00 | 0.00 | 78 | 1014.7 |
| 20260507215424 | 20 | 280 | 3.2 | 27.4 | 0.00 | 0.00 | 0.00 | 79 | 1014.7 |
| 20260507214921 | 21 | 290 | 6.4 | 17.7 | 0.00 | 0.00 | 0.00 | 76 | 1014.8 |
| 20260507214419 | 21 | 284 | 6.4 | 11.3 | 0.00 | 0.00 | 0.00 | 75 | 1014.8 |
| 20260507213914 | 21 | 253 | 3.2 | 12.9 | 0.00 | 0.00 | 0.00 | 76 | 1014.9 |
| 20260507213411 | 21 | 283 | 3.2 | 16.1 | 0.00 | 0.00 | 0.00 | 77 | 1015.1 |
| 20260507212908 | 21 | 248 | 4.8 | 14.5 | 0.00 | 0.00 | 0.00 | 75 | 1014.8 |
| 20260507212403 | 22 | 225 | 8.0 | 16.1 | 0.00 | 0.00 | 0.00 | 76 | 1014.6 |
| 20260507211900 | 22 | 286 | 3.2 | 9.7 | 0.00 | 0.00 | 0.00 | 77 | 1014.9 |
| 20260507211357 | 21 | 257 | 4.8 | 19.3 | 0.00 | 0.00 | 0.00 | 78 | 1015.1 |
| 20260507210854 | 21 | 207 | 6.4 | 19.3 | 0.00 | 0.00 | 0.00 | 77 | 1014.9 |
| 20260507210351 | 22 | 205 | 4.8 | 20.9 | 0.00 | 0.00 | 0.00 | 77 | 1015.1 |
| 20260507205847 | 22 | 225 | 1.6 | 11.3 | 0.00 | 0.00 | 0.00 | 76 | 1015.0 |
| 20260507205344 | 21 | 57 | 6.4 | 17.7 | 0.00 | 0.00 | 0.00 | 78 | 1015.2 |
| 20260507204840 | 21 | 289 | 4.8 | 16.1 | 0.00 | 0.00 | 0.00 | 76 | 1015.4 |
| 20260507204337 | 21 | 220 | 6.4 | 17.7 | 0.00 | 0.00 | 0.00 | 76 | 1015.4 |
| 20260507203835 | 21 | 202 | 6.4 | 9.7 | 0.00 | 0.00 | 0.00 | 76 | 1015.2 |
| 20260507203333 | 20 | 239 | 3.2 | 12.9 | 0.00 | 0.00 | 0.00 | 79 | 1015.2 |
| 20260507202829 | 21 | 212 | 6.4 | 14.5 | 0.00 | 0.00 | 0.00 | 77 | 1015.4 |
| 20260507202326 | 21 | 209 | 8.0 | 12.9 | 0.00 | 0.00 | 0.00 | 75 | 1015.2 |
| 20260507201821 | 21 | 278 | 3.2 | 9.7 | 0.00 | 0.00 | 0.00 | 75 | 1015.3 |
| 20260507201317 | 21 | 347 | 3.2 | 17.7 | 0.00 | 0.00 | 0.00 | 77 | 1015.4 |
| 20260507200814 | 21 | 214 | 4.8 | 14.5 | 0.00 | 0.00 | 0.00 | 76 | 1015.6 |
| 20260507200309 | 21 | 259 | 6.4 | 9.7 | 0.00 | 0.00 | 0.00 | 74 | 1015.5 |
| 20260507195805 | 21 | 210 | 4.8 | 14.5 | 0.00 | 0.00 | 0.00 | 74 | 1015.6 |
| 20260507195305 | 21 | 234 | 4.8 | 11.3 | 0.00 | 0.00 | 0.00 | 75 | 1015.4 |
| 20260507194800 | 21 | 237 | 8.0 | 12.9 | 0.00 | 0.00 | 0.00 | 75 | 1015.6 |
| 20260507194250 | 20 | 327 | 1.6 | 14.5 | 0.00 | 0.00 | 0.00 | 78 | 1015.6 |
| 20260507193747 | 21 | 213 | 1.6 | 11.3 | 0.00 | 0.00 | 0.00 | 76 | 1015.8 |
| 20260507193244 | 20 | 79 | 3.2 | 11.3 | 0.00 | 0.00 | 0.00 | 77 | 1015.8 |
| 20260507192740 | 21 | 223 | 6.4 | 16.1 | 0.00 | 0.00 | 0.00 | 74 | 1015.8 |
| 20260507192237 | 20 | 141 | 3.2 | 11.3 | 0.00 | 0.00 | 0.00 | 77 | 1016.0 |
| 20260507191733 | 20 | 224 | 3.2 | 20.9 | 0.00 | 0.00 | 0.00 | 78 | 1015.7 |
| 20260507191230 | 21 | 273 | 3.2 | 11.3 | 0.00 | 0.00 | 0.00 | 75 | 1016.0 |
| 20260507190727 | 21 | 227 | 0.0 | 11.3 | 0.00 | 0.00 | 0.00 | 76 | 1016.0 |
| 20260507190225 | 21 | 199 | 1.6 | 12.9 | 0.00 | 0.00 | 0.00 | 77 | 1016.0 |
| 20260507185724 | 21 | 204 | 4.8 | 14.5 | 0.00 | 0.00 | 0.00 | 76 | 1016.0 |
| 20260507185220 | 21 | 225 | 1.6 | 12.9 | 0.00 | 0.00 | 0.00 | 75 | 1016.1 |
| 20260507184718 | 20 | 10 | 4.8 | 12.9 | 0.00 | 0.00 | 0.00 | 77 | 1016.4 |
| 20260507184215 | 20 | 279 | 1.6 | 9.7 | 0.00 | 0.00 | 0.00 | 77 | 1016.4 |
| 20260507183712 | 20 | 272 | 8.0 | 12.9 | 0.00 | 0.00 | 0.00 | 78 | 1016.3 |
| 20260507183208 | 20 | 358 | 3.2 | 14.5 | 0.00 | 0.00 | 0.00 | 78 | 1016.5 |
| 20260507182705 | 20 | 235 | 1.6 | 9.7 | 0.00 | 0.00 | 0.00 | 77 | 1016.3 |
| 20260507182155 | 21 | 325 | 3.2 | 8.0 | 0.00 | 0.00 | 0.00 | 76 | 1016.4 |
| 20260507181652 | 20 | 221 | 1.6 | 9.7 | 0.00 | 0.00 | 0.00 | 78 | 1016.4 |
| 20260507181148 | 20 | 217 | 3.2 | 11.3 | 0.00 | 0.00 | 0.00 | 78 | 1016.3 |
| 20260507180645 | 20 | 263 | 4.8 | 14.5 | 0.00 | 0.00 | 0.00 | 78 | 1016.4 |
| 20260507180142 | 20 | 226 | 8.0 | 14.5 | 0.00 | 0.00 | 0.00 | 80 | 1016.3 |
| 20260507175638 | 20 | 220 | 4.8 | 8.0 | 0.00 | 0.00 | 0.00 | 77 | 1016.3 |
| 20260507175135 | 20 | 220 | 9.7 | 12.9 | 0.00 | 0.00 | 0.00 | 78 | 1016.3 |
| 20260507174631 | 20 | 299 | 8.0 | 11.3 | 0.00 | 0.00 | 0.00 | 79 | 1016.3 |
| 20260507174130 | 20 | 175 | 4.8 | 9.7 | 0.00 | 0.00 | 0.00 | 78 | 1016.3 |
| 20260507173621 | 20 | 280 | 4.8 | 9.7 | 0.00 | 0.00 | 0.00 | 79 | 1016.5 |
| 20260507173118 | 19 | 10 | 3.2 | 11.3 | 0.00 | 0.00 | 0.00 | 81 | 1016.6 |
| 20260507172614 | 20 | 310 | 1.6 | 14.5 | 0.00 | 0.00 | 0.00 | 81 | 1016.3 |
| 20260507172112 | 19 | 300 | 0.0 | 9.7 | 0.00 | 0.00 | 0.00 | 81 | 1016.5 |
| 20260507171607 | 19 | 310 | 4.8 | 12.9 | 0.00 | 0.00 | 0.00 | 81 | 1016.4 |
| 20260507171104 | 19 | 236 | 3.2 | 14.5 | 0.00 | 0.00 | 0.00 | 81 | 1016.4 |
| 20260507170601 | 19 | 300 | 4.8 | 9.7 | 0.00 | 0.00 | 0.00 | 81 | 1016.5 |
| 20260507170057 | 19 | 179 | 3.2 | 14.5 | 0.00 | 0.00 | 0.00 | 81 | 1016.5 |
| 20260507165553 | 19 | 257 | 6.4 | 11.3 | 0.00 | 0.00 | 0.00 | 80 | 1016.5 |
| 20260507165049 | 20 | 245 | 0.0 | 8.0 | 0.00 | 0.00 | 0.00 | 80 | 1016.5 |
| 20260507164546 | 19 | 214 | 3.2 | 9.7 | 0.00 | 0.00 | 0.00 | 81 | 1016.6 |
| 20260507164043 | 20 | 267 | 3.2 | 11.3 | 0.00 | 0.00 | 0.00 | 80 | 1016.5 |
| 20260507163541 | 20 | 266 | 3.2 | 8.0 | 0.00 | 0.00 | 0.00 | 78 | 1016.6 |
| 20260507163038 | 19 | 242 | 4.8 | 11.3 | 0.00 | 0.00 | 0.00 | 79 | 1016.5 |
| 20260507162533 | 20 | 340 | 0.0 | 8.0 | 0.00 | 0.00 | 0.00 | 79 | 1016.6 |
| 20260507162030 | 20 | 235 | 3.2 | 6.4 | 0.00 | 0.00 | 0.00 | 79 | 1016.5 |
| 20260507161526 | 20 | 300 | 1.6 | 11.3 | 0.00 | 0.00 | 0.00 | 79 | 1016.7 |
| 20260507161023 | 20 | 238 | 4.8 | 4.8 | 0.00 | 0.00 | 0.00 | 77 | 1016.5 |
| 20260507160519 | 20 | 230 | 6.4 | 11.3 | 0.00 | 0.00 | 0.00 | 77 | 1016.5 |
| 20260507160016 | 20 | 293 | 1.6 | 6.4 | 0.00 | 0.00 | 0.00 | 76 | 1016.6 |
| 20260507155511 | 20 | 323 | 0.0 | 3.2 | 0.00 | 0.00 | 0.00 | 77 | 1016.7 |
| 20260507155009 | 20 | 287 | 1.6 | 4.8 | 0.00 | 0.00 | 0.00 | 77 | 1016.6 |
| 20260507154505 | 20 | 20 | 0.0 | 4.8 | 0.00 | 0.00 | 0.00 | 80 | 1016.7 |
| 20260507154002 | 20 | 356 | 1.6 | 6.4 | 0.00 | 0.00 | 0.00 | 79 | 1016.6 |
| 20260507153459 | 19 | 302 | 1.6 | 4.8 | 0.00 | 0.00 | 0.00 | 78 | 1016.6 |
| 20260507152955 | 20 | 80 | 3.2 | 6.4 | 0.00 | 0.00 | 0.00 | 79 | 1016.6 |
| 20260507152451 | 19 | 79 | 3.2 | 6.4 | 0.00 | 0.00 | 0.00 | 80 | 1016.8 |
| 20260507151948 | 19 | 62 | 1.6 | 6.4 | 0.00 | 0.00 | 0.00 | 81 | 1016.9 |
| 20260507151444 | 18 | 311 | 0.0 | 3.2 | 0.00 | 0.00 | 0.00 | 85 | 1016.9 |
| 20260507150941 | 17 | 49 | 0.0 | 3.2 | 0.00 | 0.00 | 0.00 | 85 | 1016.7 |
| 20260507150438 | 18 | 337 | 1.6 | 3.2 | 0.00 | 0.00 | 0.00 | 85 | 1016.9 |
| 20260507145934 | 18 | 313 | 0.0 | 3.2 | 0.00 | 0.00 | 0.00 | 86 | 1016.7 |
| 20260507145430 | 18 | 343 | 0.0 | 4.8 | 0.00 | 0.00 | 0.00 | 87 | 1016.6 |
| 20260507144927 | 18 | 328 | 0.0 | 4.8 | 0.00 | 0.00 | 0.00 | 88 | 1016.7 |
| 20260507144424 | 17 | 321 | 0.0 | 1.6 | 0.00 | 0.00 | 0.00 | 90 | 1016.5 |
| 20260507143921 | 17 | 142 | 0.0 | 1.6 | 0.00 | 0.00 | 0.00 | 92 | 1016.6 |
| 20260507143418 | 17 | 318 | 0.0 | 3.2 | 0.00 | 0.00 | 0.00 | 92 | 1016.7 |
| 20260507142915 | 16 | 283 | 4.8 | 4.8 | 0.00 | 0.00 | 0.00 | 93 | 1016.4 |
| 20260507142410 | 16 | 277 | 3.2 | 4.8 | 0.00 | 0.00 | 0.00 | 94 | 1016.6 |
| 20260507141908 | 16 | 313 | 1.6 | 6.4 | 0.00 | 0.00 | 0.00 | 95 | 1016.4 |
| 20260507141404 | 16 | 320 | 3.2 | 6.4 | 0.00 | 0.00 | 0.00 | 95 | 1016.3 |
| 20260507140901 | 16 | 305 | 3.2 | 4.8 | 0.00 | 0.00 | 0.00 | 95 | 1016.3 |
| 20260507140357 | 15 | 9 | 1.6 | 3.2 | 0.00 | 0.00 | 0.00 | 96 | 1016.2 |
| 20260507135855 | 15 | 295 | 0.0 | 6.4 | 0.00 | 0.00 | 0.00 | 97 | 1016.2 |
| 20260507135352 | 15 | 308 | 3.2 | 4.8 | 0.00 | 0.00 | 0.00 | 97 | 1016.2 |
| 20260507134849 | 15 | 321 | 0.0 | 3.2 | 0.00 | 0.00 | 0.00 | 97 | 1016.1 |
| 20260507134345 | 15 | 322 | 0.0 | 1.6 | 0.00 | 0.00 | 0.00 | 97 | 1016.2 |
| 20260507133841 | 14 | 305 | 1.6 | 3.2 | 0.00 | 0.00 | 0.00 | 98 | 1015.9 |
| 20260507133337 | 14 | 339 | 0.0 | 3.2 | 0.00 | 0.00 | 0.00 | 98 | 1015.9 |
| 20260507132836 | 14 | 300 | 1.6 | 3.2 | 0.00 | 0.00 | 0.00 | 98 | 1015.9 |
| 20260507132332 | 14 | 240 | 1.6 | 3.2 | 0.00 | 0.00 | 0.00 | 98 | 1015.8 |
| 20260507131829 | 13 | 330 | 1.6 | 3.2 | 0.00 | 0.00 | 0.00 | 98 | 1015.9 |
| 20260507131325 | 13 | 15 | 0.0 | 3.2 | 0.00 | 0.00 | 0.00 | 98 | 1015.8 |
| 20260507130823 | 13 | 28 | 0.0 | 3.2 | 0.00 | 0.00 | 0.00 | 98 | 1015.7 |
| 20260507130320 | 13 | 288 | 0.0 | 3.2 | 0.00 | 0.00 | 0.00 | 98 | 1015.7 |
| 20260507125819 | 13 | 307 | 0.0 | 3.2 | 0.00 | 0.00 | 0.00 | 98 | 1015.7 |
| 20260507125316 | 13 | 353 | 0.0 | 3.2 | 0.00 | 0.00 | 0.00 | 98 | 1015.7 |
| 20260507124813 | 13 | 252 | 1.6 | 3.2 | 0.00 | 0.00 | 0.00 | 98 | 1015.8 |
| 20260507124309 | 13 | 315 | 0.0 | 3.2 | 0.00 | 0.00 | 0.00 | 98 | 1015.6 |
| 20260507123808 | 13 | 209 | 0.0 | 3.2 | 0.00 | 0.00 | 0.00 | 97 | 1015.7 |
| 20260507123305 | 13 | 322 | 0.0 | 1.6 | 0.00 | 0.00 | 0.00 | 97 | 1015.5 |
| 20260507122801 | 13 | 224 | 0.0 | 1.6 | 0.00 | 0.00 | 0.00 | 97 | 1015.6 |
| 20260507122256 | 13 | 217 | 0.0 | 0.0 | 0.00 | 0.00 | 0.00 | 97 | 1015.6 |
| 20260507121752 | 13 | 218 | 0.0 | 1.6 | 0.00 | 0.00 | 0.00 | 97 | 1015.7 |
| 20260507121248 | 13 | 333 | 0.0 | 1.6 | 0.00 | 0.00 | 0.00 | 97 | 1015.7 |
| 20260507120744 | 13 | 38 | 0.0 | 1.6 | 0.00 | 0.00 | 0.00 | 96 | 1015.7 |
| 20260507120241 | 13 | 0 | 0.0 | 0.0 | 0.00 | 0.00 | 0.00 | 96 | 1015.8 |
| 20260507115737 | 13 | 0 | 0.0 | 3.2 | 0.00 | 0.00 | 0.00 | 96 | 1015.8 |
| 20260507115233 | 13 | 43 | 0.0 | 1.6 | 0.00 | 0.00 | 0.00 | 96 | 1015.8 |
| 20260507114729 | 13 | 37 | 0.0 | 3.2 | 0.00 | 0.00 | 0.00 | 96 | 1015.7 |
| 20260507114227 | 13 | 50 | 0.0 | 3.2 | 0.00 | 0.00 | 0.00 | 96 | 1015.7 |
| 20260507113724 | 13 | 29 | 0.0 | 1.6 | 0.00 | 0.00 | 0.00 | 96 | 1015.9 |
| 20260507113221 | 13 | 343 | 0.0 | 1.6 | 0.00 | 0.00 | 0.00 | 96 | 1015.9 |
| 20260507112718 | 13 | 243 | 0.0 | 1.6 | 0.00 | 0.00 | 0.00 | 96 | 1015.9 |
| 20260507112215 | 13 | 190 | 1.6 | 3.2 | 0.00 | 0.00 | 0.00 | 95 | 1015.9 |
| 20260507111713 | 13 | 186 | 0.0 | 0.0 | 0.00 | 0.00 | 0.00 | 95 | 1015.8 |
| 20260507111210 | 14 | 214 | 0.0 | 1.6 | 0.00 | 0.00 | 0.00 | 95 | 1015.8 |
| 20260507110705 | 14 | 0 | 0.0 | 0.0 | 0.00 | 0.00 | 0.00 | 95 | 1015.8 |
| 20260507110202 | 14 | 261 | 3.2 | 3.2 | 0.00 | 0.00 | 0.00 | 95 | 1015.9 |
| 20260507105659 | 14 | 309 | 0.0 | 1.6 | 0.00 | 0.00 | 0.00 | 95 | 1015.9 |
| 20260507105155 | 14 | 326 | 1.6 | 1.6 | 0.00 | 0.00 | 0.00 | 95 | 1015.9 |
| 20260507104653 | 14 | 230 | 0.0 | 1.6 | 0.00 | 0.00 | 0.00 | 95 | 1016.1 |
| 20260507104149 | 14 | 284 | 0.0 | 1.6 | 0.00 | 0.00 | 0.00 | 95 | 1016.1 |
| 20260507103645 | 14 | 214 | 0.0 | 3.2 | 0.00 | 0.00 | 0.00 | 94 | 1016.0 |
| 20260507103142 | 14 | 242 | 0.0 | 1.6 | 0.00 | 0.00 | 0.00 | 94 | 1015.9 |
| 20260507102638 | 14 | 325 | 1.6 | 3.2 | 0.00 | 0.00 | 0.00 | 95 | 1016.1 |
| 20260507102134 | 14 | 292 | 1.6 | 3.2 | 0.00 | 0.00 | 0.00 | 95 | 1016.2 |
| 20260507101630 | 14 | 319 | 0.0 | 1.6 | 0.00 | 0.00 | 0.00 | 95 | 1016.2 |
| 20260507101126 | 14 | 326 | 0.0 | 3.2 | 0.00 | 0.00 | 0.00 | 94 | 1016.1 |
| 20260507100624 | 14 | 309 | 0.0 | 3.2 | 0.00 | 0.00 | 0.00 | 95 | 1016.1 |
| 20260507100122 | 14 | 289 | 1.6 | 3.2 | 0.00 | 0.00 | 0.00 | 95 | 1016.2 |
| 20260507095620 | 14 | 282 | 0.0 | 3.2 | 0.00 | 0.00 | 0.00 | 94 | 1016.0 |
| 20260507095116 | 14 | 319 | 0.0 | 3.2 | 0.00 | 0.00 | 0.00 | 94 | 1016.1 |
| 20260507094612 | 14 | 286 | 1.6 | 3.2 | 0.00 | 0.00 | 0.00 | 95 | 1016.2 |
| 20260507094109 | 14 | 345 | 0.0 | 3.2 | 0.00 | 0.00 | 0.00 | 95 | 1016.2 |
| 20260507093607 | 14 | 288 | 0.0 | 3.2 | 0.00 | 0.00 | 0.00 | 95 | 1016.3 |
| 20260507093105 | 14 | 309 | 0.0 | 1.6 | 0.00 | 0.00 | 0.00 | 95 | 1016.3 |
| 20260507092601 | 14 | 37 | 0.0 | 0.0 | 0.00 | 0.00 | 0.00 | 95 | 1016.5 |
| 20260507092058 | 14 | 359 | 1.6 | 3.2 | 0.00 | 0.00 | 0.00 | 95 | 1016.5 |
| 20260507091555 | 14 | 326 | 0.0 | 0.0 | 0.00 | 0.00 | 0.00 | 95 | 1016.4 |
| 20260507091051 | 15 | 344 | 1.6 | 3.2 | 0.00 | 0.00 | 0.00 | 95 | 1016.5 |
| 20260507090547 | 15 | 295 | 0.0 | 3.2 | 0.00 | 0.00 | 0.00 | 95 | 1016.4 |
| 20260507090044 | 15 | 294 | 0.0 | 3.2 | 0.00 | 0.00 | 0.00 | 95 | 1016.7 |
| 20260507085541 | 15 | 21 | 0.0 | 3.2 | 0.00 | 0.00 | 0.00 | 95 | 1016.6 |
| 20260507085038 | 15 | 344 | 0.0 | 3.2 | 0.00 | 0.00 | 0.00 | 95 | 1016.6 |
| 20260507084534 | 15 | 345 | 0.0 | 3.2 | 0.00 | 0.00 | 0.00 | 95 | 1016.7 |
| 20260507084031 | 15 | 3 | 3.2 | 3.2 | 0.00 | 0.00 | 0.00 | 95 | 1016.9 |
| 20260507083527 | 15 | 321 | 1.6 | 3.2 | 0.00 | 0.00 | 0.00 | 96 | 1017.0 |
| 20260507083025 | 15 | 326 | 0.0 | 3.2 | 0.00 | 0.00 | 0.00 | 96 | 1016.9 |
| 20260507082520 | 15 | 330 | 0.0 | 3.2 | 0.00 | 0.00 | 0.00 | 96 | 1017.0 |
| 20260507082017 | 15 | 326 | 1.6 | 3.2 | 0.00 | 0.00 | 0.00 | 96 | 1017.0 |
| 20260507081514 | 15 | 3 | 0.0 | 4.8 | 0.00 | 0.00 | 0.00 | 96 | 1017.0 |
| 20260507081011 | 15 | 284 | 0.0 | 4.8 | 0.00 | 0.00 | 0.00 | 95 | 1017.0 |
| 20260507080506 | 15 | 319 | 3.2 | 4.8 | 0.00 | 0.00 | 0.00 | 96 | 1017.1 |
| 20260507080003 | 15 | 319 | 1.6 | 4.8 | 0.00 | 0.00 | 0.00 | 95 | 1016.9 |
| 20260507075458 | 15 | 316 | 3.2 | 4.8 | 0.00 | 0.00 | 0.00 | 96 | 1017.0 |
| 20260507074955 | 15 | 296 | 0.0 | 3.2 | 0.00 | 0.00 | 0.00 | 95 | 1017.0 |
| 20260507074452 | 15 | 276 | 3.2 | 4.8 | 0.00 | 0.00 | 0.00 | 95 | 1017.1 |
| 20260507073950 | 15 | 285 | 3.2 | 6.4 | 0.00 | 0.00 | 0.00 | 95 | 1017.0 |
| 20260507073446 | 15 | 303 | 1.6 | 3.2 | 0.00 | 0.00 | 0.00 | 95 | 1017.0 |
| 20260507072943 | 15 | 307 | 1.6 | 6.4 | 0.00 | 0.00 | 0.00 | 95 | 1017.1 |
| 20260507072440 | 15 | 299 | 3.2 | 4.8 | 0.00 | 0.00 | 0.00 | 95 | 1016.9 |
| 20260507071937 | 15 | 283 | 3.2 | 6.4 | 0.00 | 0.00 | 0.00 | 95 | 1016.9 |
| 20260507071434 | 15 | 310 | 4.8 | 8.0 | 0.00 | 0.00 | 0.00 | 95 | 1017.2 |
| 20260507070931 | 15 | 289 | 4.8 | 9.7 | 0.00 | 0.00 | 0.00 | 95 | 1017.1 |
| 20260507070428 | 15 | 302 | 4.8 | 6.4 | 0.00 | 0.00 | 0.00 | 95 | 1017.1 |
| 20260507065925 | 15 | 303 | 4.8 | 8.0 | 0.00 | 0.00 | 0.00 | 95 | 1017.2 |
| 20260507065421 | 15 | 253 | 1.6 | 6.4 | 0.00 | 0.00 | 0.00 | 94 | 1017.1 |
| 20260507064919 | 15 | 290 | 3.2 | 8.0 | 0.00 | 0.00 | 0.00 | 94 | 1017.1 |
| 20260507064417 | 15 | 273 | 4.8 | 8.0 | 0.00 | 0.00 | 0.00 | 94 | 1017.2 |
| 20260507063915 | 15 | 285 | 1.6 | 4.8 | 0.00 | 0.00 | 0.00 | 94 | 1017.1 |
| 20260507063411 | 15 | 292 | 4.8 | 8.0 | 0.00 | 0.00 | 0.00 | 94 | 1017.3 |
| 20260507062909 | 15 | 261 | 3.2 | 8.0 | 0.00 | 0.00 | 0.00 | 94 | 1017.5 |
| 20260507062405 | 15 | 276 | 3.2 | 6.4 | 0.00 | 0.00 | 0.00 | 94 | 1017.3 |
| 20260507061902 | 15 | 196 | 0.0 | 8.0 | 0.00 | 0.00 | 0.00 | 94 | 1017.4 |
| 20260507061400 | 15 | 279 | 4.8 | 9.7 | 0.00 | 0.00 | 0.00 | 94 | 1017.4 |
| 20260507060853 | 15 | 292 | 8.0 | 12.9 | 0.00 | 0.00 | 0.00 | 94 | 1017.3 |
| 20260507060349 | 15 | 264 | 8.0 | 12.9 | 0.00 | 0.00 | 0.00 | 94 | 1017.5 |
| 20260507055846 | 15 | 280 | 6.4 | 9.7 | 0.00 | 0.00 | 0.00 | 94 | 1017.4 |
| 20260507055341 | 15 | 297 | 6.4 | 8.0 | 0.00 | 0.00 | 0.00 | 94 | 1017.6 |
| 20260507054839 | 15 | 265 | 1.6 | 12.9 | 0.00 | 0.00 | 0.00 | 94 | 1017.4 |
| 20260507054334 | 15 | 255 | 3.2 | 12.9 | 0.00 | 0.00 | 0.00 | 94 | 1017.3 |
| 20260507053832 | 15 | 265 | 6.4 | 11.3 | 0.00 | 0.00 | 0.00 | 94 | 1017.2 |
| 20260507053329 | 15 | 295 | 6.4 | 14.5 | 0.00 | 0.00 | 0.00 | 94 | 1017.3 |
| 20260507052828 | 15 | 250 | 3.2 | 6.4 | 0.00 | 0.00 | 0.00 | 94 | 1017.3 |
| 20260507052324 | 15 | 296 | 6.4 | 14.5 | 0.00 | 0.00 | 0.00 | 94 | 1017.2 |
| 20260507051822 | 16 | 287 | 12.9 | 17.7 | 0.00 | 0.00 | 0.00 | 94 | 1017.0 |
| 20260507051320 | 16 | 283 | 6.4 | 17.7 | 0.00 | 0.00 | 0.00 | 94 | 1017.2 |
| 20260507050816 | 16 | 275 | 16.1 | 19.3 | 0.00 | 0.00 | 0.00 | 93 | 1017.1 |
| 20260507050312 | 16 | 280 | 11.3 | 14.5 | 0.00 | 0.00 | 0.00 | 93 | 1017.1 |
| 20260507045810 | 16 | 289 | 8.0 | 14.5 | 0.00 | 0.00 | 0.00 | 93 | 1017.2 |
| 20260507045307 | 16 | 266 | 11.3 | 16.1 | 0.00 | 0.00 | 0.00 | 93 | 1017.1 |
| 20260507044803 | 16 | 271 | 9.7 | 14.5 | 0.00 | 0.00 | 0.00 | 92 | 1017.1 |
| 20260507044300 | 16 | 232 | 8.0 | 16.1 | 0.00 | 0.00 | 0.00 | 92 | 1017.1 |
| 20260507043756 | 16 | 308 | 6.4 | 11.3 | 0.00 | 0.00 | 0.00 | 92 | 1017.3 |
| 20260507043252 | 16 | 289 | 8.0 | 17.7 | 0.00 | 0.00 | 0.00 | 92 | 1017.1 |
| 20260507042749 | 16 | 253 | 0.0 | 8.0 | 0.00 | 0.00 | 0.00 | 92 | 1017.1 |
| 20260507042244 | 16 | 271 | 9.7 | 16.1 | 0.00 | 0.00 | 0.00 | 92 | 1016.9 |
| 20260507041742 | 16 | 287 | 14.5 | 14.5 | 0.00 | 0.00 | 0.00 | 91 | 1017.0 |
| 20260507041238 | 16 | 303 | 6.4 | 8.0 | 0.00 | 0.00 | 0.00 | 91 | 1016.9 |
| 20260507040735 | 16 | 297 | 3.2 | 16.1 | 0.00 | 0.00 | 0.00 | 90 | 1016.9 |
| 20260507040231 | 16 | 287 | 6.4 | 16.1 | 0.00 | 0.00 | 0.00 | 90 | 1017.0 |
| 20260507035727 | 16 | 273 | 6.4 | 12.9 | 0.00 | 0.00 | 0.00 | 90 | 1017.0 |
| 20260507035223 | 16 | 297 | 4.8 | 14.5 | 0.00 | 0.00 | 0.00 | 90 | 1016.8 |
| 20260507034721 | 16 | 272 | 4.8 | 12.9 | 0.00 | 0.00 | 0.00 | 89 | 1016.8 |
| 20260507034217 | 16 | 278 | 8.0 | 16.1 | 0.00 | 0.00 | 0.00 | 89 | 1016.7 |
| 20260507033716 | 16 | 269 | 6.4 | 22.5 | 0.00 | 0.00 | 0.00 | 88 | 1016.7 |
| 20260507033213 | 16 | 271 | 6.4 | 17.7 | 0.00 | 0.00 | 0.00 | 89 | 1016.6 |
| 20260507032710 | 16 | 294 | 8.0 | 14.5 | 0.00 | 0.00 | 0.00 | 89 | 1016.5 |
| 20260507032206 | 16 | 240 | 6.4 | 16.1 | 0.00 | 0.00 | 0.00 | 89 | 1016.6 |
| 20260507031703 | 16 | 284 | 4.8 | 11.3 | 0.00 | 0.00 | 0.00 | 90 | 1016.4 |
| 20260507031200 | 16 | 257 | 8.0 | 19.3 | 0.00 | 0.00 | 0.00 | 89 | 1016.4 |
| 20260507030656 | 16 | 281 | 11.3 | 20.9 | 0.00 | 0.00 | 0.00 | 89 | 1016.4 |
| 20260507030154 | 16 | 265 | 11.3 | 25.7 | 0.00 | 0.00 | 0.00 | 89 | 1016.2 |
| 20260507025651 | 16 | 283 | 19.3 | 25.7 | 0.00 | 0.00 | 0.00 | 89 | 1016.5 |
| 20260507025148 | 16 | 273 | 11.3 | 30.6 | 0.00 | 0.00 | 0.00 | 89 | 1016.3 |
| 20260507024646 | 16 | 261 | 11.3 | 20.9 | 0.00 | 0.00 | 0.00 | 89 | 1016.1 |
| 20260507024143 | 16 | 285 | 11.3 | 25.7 | 0.00 | 0.00 | 0.00 | 88 | 1016.2 |
| 20260507023638 | 16 | 278 | 9.7 | 24.1 | 0.00 | 0.00 | 0.00 | 88 | 1016.1 |
| 20260507023136 | 16 | 264 | 11.3 | 24.1 | 0.00 | 0.00 | 0.00 | 87 | 1016.0 |
| 20260507022633 | 16 | 250 | 9.7 | 30.6 | 0.00 | 0.00 | 0.00 | 87 | 1015.8 |
| 20260507022128 | 16 | 229 | 3.2 | 30.6 | 0.00 | 0.00 | 0.00 | 87 | 1016.0 |
| 20260507021625 | 17 | 274 | 9.7 | 29.0 | 0.00 | 0.00 | 0.00 | 86 | 1016.0 |
| 20260507021120 | 17 | 267 | 14.5 | 30.6 | 0.00 | 0.00 | 0.00 | 86 | 1016.0 |
| 20260507020619 | 17 | 255 | 12.9 | 30.6 | 0.00 | 0.00 | 0.00 | 86 | 1015.9 |
| 20260507020115 | 17 | 258 | 14.5 | 30.6 | 0.00 | 0.00 | 0.00 | 85 | 1015.9 |
| 20260507015614 | 17 | 278 | 12.9 | 30.6 | 0.00 | 0.00 | 0.00 | 85 | 1015.9 |
| 20260507015111 | 17 | 300 | 8.0 | 29.0 | 0.00 | 0.00 | 0.00 | 85 | 1015.9 |
| 20260507014607 | 17 | 252 | 14.5 | 22.5 | 0.00 | 0.00 | 0.00 | 86 | 1015.8 |
| 20260507014103 | 17 | 306 | 9.7 | 29.0 | 0.00 | 0.00 | 0.00 | 86 | 1015.9 |
| 20260507013600 | 17 | 286 | 11.3 | 22.5 | 0.00 | 0.00 | 0.00 | 85 | 1015.8 |
| 20260507013057 | 17 | 269 | 14.5 | 33.8 | 0.00 | 0.00 | 0.00 | 85 | 1015.6 |
| 20260507012554 | 17 | 271 | 17.7 | 25.7 | 0.00 | 0.00 | 0.00 | 86 | 1015.9 |
| 20260507012049 | 17 | 273 | 19.3 | 29.0 | 0.00 | 0.00 | 0.00 | 85 | 1015.8 |
| 20260507011547 | 17 | 214 | 8.0 | 20.9 | 0.00 | 0.00 | 0.00 | 85 | 1015.7 |
| 20260507011038 | 17 | 266 | 12.9 | 27.4 | 0.00 | 0.00 | 0.00 | 85 | 1015.6 |
| 20260507010532 | 18 | 273 | 9.7 | 20.9 | 0.00 | 0.00 | 0.00 | 84 | 1015.6 |
| 20260507010029 | 17 | 246 | 11.3 | 38.6 | 0.00 | 0.00 | 0.00 | 86 | 1015.7 |
| 20260507005527 | 17 | 250 | 8.0 | 33.8 | 0.00 | 0.00 | 0.00 | 86 | 1015.6 |
| 20260507005023 | 18 | 281 | 27.4 | 30.6 | 0.00 | 0.00 | 0.00 | 84 | 1015.7 |
| 20260507004520 | 18 | 265 | 12.9 | 24.1 | 0.00 | 0.00 | 0.00 | 83 | 1015.5 |
| 20260507004018 | 18 | 217 | 14.5 | 29.0 | 0.00 | 0.00 | 0.00 | 83 | 1015.6 |
| 20260507003513 | 18 | 284 | 20.9 | 32.2 | 0.00 | 0.00 | 0.00 | 84 | 1015.6 |
| 20260507003008 | 18 | 273 | 17.7 | 27.4 | 0.00 | 0.00 | 0.00 | 83 | 1015.7 |